Location: Edinburgh
(55.9500°N, 3.1600°W)
Time: 21:49:49
(UTC+01:00)

Envisat - Pass Details

Date: 08 October 2017
Orbit: 764 x 766 km, 98.2° (Epoch: 17 October)

Event Time Altitude Azimuth Distance (km) Brightness Sun altitude
Exits shadow 22:20:59 - 230° (SW) 2,383 5.6 -31.2°
Reaches altitude 10° 22:21:18 10° 233° (SW) 2,304 5.6 -31.2°
Maximum altitude 22:24:38 17° 274° (W) 1,847 5.4 -31.5°
Drops below altitude 10° 22:27:59 10° 316° (NW) 2,315 6.4 -31.9°
Sets 22:31:06 0° 336° (NNW) 3,247 7.2 -32.2°
